Stations météo

Publicité
Berlin-Schönefeld, Allemagne (10385): Température de l'air & dewpoint: 13.01.2018 06:00:00 - 19.01.2018 06:00:00 (CET)Berlin-Schönefeld, Allemagne (10385): Température de l'air 5cm & Température de l'air -5cm: 13.01.2018 06:00:00 - 19.01.2018 06:00:00 (CET)Berlin-Schönefeld, Allemagne (10385): Température de l'air -20cm & Température de l'air -100cm: 13.01.2018 06:00:00 - 19.01.2018 06:00:00 (CET)Berlin-Schönefeld, Allemagne (10385): Vitesse du vent & gusts: 13.01.2018 06:00:00 - 19.01.2018 06:00:00 (CET)Berlin-Schönefeld, Allemagne (10385): Direction du vent: 13.01.2018 06:00:00 - 19.01.2018 06:00:00 (CET)Berlin-Schönefeld, Allemagne (10385): reduced air pressure: 13.01.2018 06:00:00 - 19.01.2018 06:00:00 (CET)Berlin-Schönefeld, Allemagne (10385): visibility: 13.01.2018 06:00:00 - 19.01.2018 06:00:00 (CET)Berlin-Schönefeld, Allemagne (10385): Ensoleillement: 13.01.2018 06:00:00 - 19.01.2018 06:00:00 (CET)Berlin-Schönefeld, Allemagne (10385): Quantités de précipitations: 13.01.2018 06:00:00 - 19.01.2018 06:00:00 (CET)
Date & Time tt [°C] td [°C] tt 5cm [°C] tt -5cm [°C] tt -20cm [°C] tt -100cm [°C] ff [km/h] ff [knt] fx [km/h] fx [knt] dd ppp [hPa] vv [km] sd [min] rr [mm]
19.01.2018 06:00:00 2,0 0,2 1,6 1,3 1,6 4,4 15 8 21 11 W 1002,1 30 0 0,0
19.01.2018 05:00:00 2,1 0,5 1,8 1,3 1,6 4,4 7 4 16 9 WNW 1001,7 30 0 0,0
19.01.2018 04:00:00 2,0 0,2 1,8 1,3 1,6 4,4 12 6 16 9 WNW 1001,0 30 0 0,0
19.01.2018 03:00:00 1,9 0,0 1,7 1,2 1,5 4,4 13 7 35 19 W 1000,5 30 0 0,0
19.01.2018 02:00:00 1,9 -0,5 1,6 1,2 1,5 4,4 25 14 39 21 WNW 999,9 40 0 0,0
19.01.2018 01:00:00 2,0 -0,4 1,8 1,2 1,5 4,4 24 13 44 24 WNW 999,1 40 0 0,0
19.01.2018 00:00:00 2,1 -0,2 1,8 1,2 1,4 4,4 33 18 53 28 W 998,2 40 0 0,0
18.01.2018 23:00:00 2,2 -0,2 2,0 1,2 1,4 4,4 40 22 61 33 WNW 997,0 40 0 0,0
18.01.2018 22:00:00 2,4 -0,1 2,1 1,1 1,3 4,4 41 22 72 39 WNW 995,3 40 0 0,0
18.01.2018 21:00:00 2,2 0,0 1,9 1,0 1,2 4,4 46 25 75 41 WNW 993,0 20 0 0,0
18.01.2018 20:00:00 1,8 0,3 1,3 0,9 1,1 4,4 48 26 77 42 W 990,2 12 0 0,2
18.01.2018 19:00:00 2,0 0,4 1,5 0,4 1,0 4,4 54 29 80 43 W 986,8 12 0 0,5
18.01.2018 18:00:00 3,5 1,9 2,9 0,2 1,0 4,4 46 25 66 36 W 984,0 8 0 0,1
18.01.2018 17:00:00 3,9 2,0 3,1 0,1 1,0 4,5 45 24 65 35 W 982,5 10 0 0,2
18.01.2018 16:00:00 4,8 2,7 3,9 0,1 1,0 4,5 46 25 71 38 WSW 981,3 25 0 1,3
18.01.2018 15:00:00 5,1 2,8 3,9 0,1 1,0 4,5 31 17 42 23 SSW 981,6 30 0 0,1
18.01.2018 14:00:00 2,9 1,6 2,3 0,1 1,0 4,5 23 12 52 28 S 983,6 50 0 0,2
18.01.2018 13:00:00 1,6 0,6 1,0 0,1 1,0 4,5 35 19 56 30 SSE 986,1 25 0 0,8
18.01.2018 12:00:00 0,9 0,1 0,1 0,1 1,0 4,5 29 16 42 23 SSE 989,4 16 0 2,2
18.01.2018 11:00:00 2,0 0,2 1,2 0,1 1,0 4,5 31 17 44 24 S 992,7 7 0 0,1
18.01.2018 10:00:00 2,4 -0,7 1,8 0,1 1,0 4,5 22 12 33 18 S 995,7 30 0 0,0
18.01.2018 09:00:00 2,0 -0,8 1,1 0,1 1,0 4,5 25 13 41 22 S 998,0 30 0 0,0
18.01.2018 08:00:00 2,0 -0,8 1,0 0,1 1,0 4,5 27 14 37 20 SSW 1000,0 35 0 0,0
18.01.2018 07:00:00 2,0 -0,8 1,1 0,1 1,0 4,5 28 15 39 21 SW 1000,9 35 0 0,0
18.01.2018 06:00:00 1,8 -0,3 1,4 0,1 1,0 4,5 26 14 37 20 SW 1001,8 35 0 0,0
18.01.2018 05:00:00 1,7 -0,1 1,3 0,1 1,0 4,5 20 11 28 15 SW 1002,4 35 0 0,0
18.01.2018 04:00:00 1,9 0,3 1,4 0,1 1,0 4,5 21 12 31 17 WSW 1002,8 25 0 0,0
18.01.2018 03:00:00 1,8 -0,1 1,3 0,1 1,0 4,5 21 11 33 18 WSW 1003,0 30 0 0,0
18.01.2018 02:00:00 1,9 -0,3 1,3 0,1 1,0 4,5 25 13 38 21 W 1002,9 40 0 0,0
18.01.2018 01:00:00 1,9 -0,3 1,3 0,1 1,0 4,5 28 15 41 22 WSW 1002,7 50 0 0,0
18.01.2018 00:00:00 1,8 -0,4 1,0 0,1 1,0 4,5 24 13 34 18 W 1002,3 40 0 0,0
17.01.2018 23:00:00 1,7 -0,6 0,9 0,1 1,0 4,5 20 11 32 17 W 1001,5 40 0 0,0
17.01.2018 22:00:00 1,8 -0,6 1,0 0,1 1,0 4,5 24 13 35 19 W 1000,8 30 0 0,0
17.01.2018 21:00:00 1,5 -0,5 0,7 0,1 1,0 4,5 24 13 36 20 W 1000,0 30 0 0,0
17.01.2018 20:00:00 1,6 -0,9 0,7 0,1 1,0 4,6 26 14 35 19 WSW 999,3 40 0 0,0
17.01.2018 19:00:00 1,3 -1,0 0,4 0,1 1,0 4,6 19 11 31 17 WSW 998,7 40 0 0,0
17.01.2018 18:00:00 1,7 -0,5 0,8 0,0 1,0 4,6 23 12 35 19 WSW 998,2 40 0 0,0
17.01.2018 17:00:00 1,5 -0,5 0,7 0,0 1,0 4,6 27 14 42 23 W 997,6 40 0 0,0
17.01.2018 16:00:00 1,4 -0,2 0,8 0,0 1,0 4,6 33 18 45 24 W 996,5 20 0 0,3
17.01.2018 15:00:00 0,5 -0,4 0,1 0,0 1,0 4,6 29 15 46 25 W 995,4 1,6 0 1,0
17.01.2018 14:00:00 1,6 0,2 1,5 0,0 1,0 4,6 29 16 40 22 WSW 994,7 30 0 0,0
17.01.2018 13:00:00 1,7 0,1 1,6 0,0 1,0 4,6 24 13 39 21 W 994,1 30 0 0,0
17.01.2018 12:00:00 1,0 -0,1 0,8 0,0 1,0 4,6 21 12 35 19 W 993,6 30 0 0,1
17.01.2018 11:00:00 0,3 -0,4 0,1 0,0 1,0 4,6 16 9 21 11 WSW 992,9 1,6 0 0,7
17.01.2018 10:00:00 0,4 -0,5 0,3 0,0 1,0 4,6 13 7 16 9 WSW 992,1 3,5 0 0,1
17.01.2018 09:00:00 0,6 -1,1 -0,2 0,0 1,0 4,6 10 5 16 9 SW 991,5 16 0 0,0
17.01.2018 08:00:00 0,4 -1,3 -0,4 0,0 1,0 4,6 14 8 22 12 SW 991,4 22 0 0,0
17.01.2018 07:00:00 0,6 -1,0 0,2 0,0 1,0 4,6 17 9 22 12 SW 991,1 30 0 0,0
17.01.2018 06:00:00 0,0 -1,2 -0,4 0,0 0,9 4,6 14 7 20 11 SSW 991,2 30 0 0,0
17.01.2018 05:00:00 0,2 -1,4 -1,3 0,0 0,9 4,6 18 10 24 13 SW 991,1 35 0 0,0
17.01.2018 04:00:00 0,6 -1,0 0,2 0,0 0,9 4,6 20 11 29 16 SW 991,3 40 0 0,0
17.01.2018 03:00:00 0,4 -1,2 -0,5 0,0 0,9 4,6 13 7 18 10 SW 991,6 40 0 0,0
17.01.2018 02:00:00 0,5 -1,1 -0,2 0,0 0,9 4,6 13 7 18 10 SSW 991,6 40 0 0,0
17.01.2018 01:00:00 0,8 -0,7 -0,2 0,0 0,9 4,7 16 9 27 15 SW 991,8 40 0 0,0
17.01.2018 00:00:00 1,4 -0,1 1,0 0,0 0,9 4,7 20 11 30 16 WSW 991,5 40 0 0,0
16.01.2018 23:00:00 1,7 0,1 1,2 0,0 0,9 4,7 21 12 29 16 WSW 991,3 35 0 0,0
16.01.2018 22:00:00 1,8 0,1 1,3 0,0 0,9 4,7 24 13 44 24 WSW 991,2 30 0 0,0
16.01.2018 21:00:00 1,7 0,2 0,6 0,0 0,9 4,7 27 15 36 19 WSW 990,8 35 0 0,0
16.01.2018 20:00:00 2,1 0,4 0,7 0,0 0,9 4,7 21 11 46 25 W 990,6 35 0 0,1
16.01.2018 19:00:00 2,5 1,1 2,0 0,0 0,9 4,7 27 15 50 27 W 990,1 35 0 0,8
16.01.2018 18:00:00 2,9 1,6 2,3 0,0 0,9 4,7 27 15 46 25 WSW 989,4 15 0 0,5
16.01.2018 17:00:00 3,6 1,9 2,6 0,0 0,9 4,7 15 8 21 11 SW 989,0 15 0 0,0
16.01.2018 16:00:00 4,1 2,0 2,9 0,0 0,9 4,7 12 7 21 11 S 988,7 40 0 0,0
16.01.2018 15:00:00 4,6 2,4 3,6 0,0 0,9 4,7 16 8 26 14 SW 989,0 40 10 0,0
16.01.2018 14:00:00 5,0 2,7 4,3 0,0 0,9 4,7 23 12 55 30 WSW 989,2 40 9 0,7
16.01.2018 13:00:00 5,2 2,8 4,2 0,0 0,9 4,7 19 10 35 19 WSW 990,0 40 8 0,2
16.01.2018 12:00:00 4,6 2,9 4,1 0,0 0,9 4,7 23 13 35 19 SSW 990,6 40 0 0,0
16.01.2018 11:00:00 3,1 2,1 2,3 0,0 0,9 4,7 20 11 26 14 S 991,0 30 26 0,0
16.01.2018 10:00:00 2,3 1,5 3,0 0,0 0,9 4,7 19 10 24 13 S 991,5 25 33 0,1
16.01.2018 09:00:00 1,8 1,0 0,8 0,0 0,9 4,8 16 9 31 17 S 991,9 20 0 0,0
16.01.2018 08:00:00 1,5 0,6 0,6 0,0 0,9 4,8 19 10 29 16 S 992,1 20 0 0,1
16.01.2018 07:00:00 1,5 0,6 0,6 0,0 0,9 4,8 26 14 38 21 S 992,5 16 0 0,3
16.01.2018 06:00:00 0,8 0,0 0,1 0,0 0,9 4,8 24 13 35 19 S 992,4 15 0 1,5
16.01.2018 05:00:00 0,7 -0,2 0,1 0,0 0,9 4,8 30 16 46 25 S 993,3 8 0 0,5
16.01.2018 04:00:00 0,3 -0,6 0,1 -0,1 0,9 4,8 33 18 50 27 SSE 994,2 1,8 0 0,4
16.01.2018 03:00:00 0,6 -1,3 0,2 -0,1 1,0 4,8 36 20 48 26 SSE 995,7 6 0 0,0
16.01.2018 02:00:00 0,7 -1,4 0,4 -0,1 1,0 4,8 34 18 55 30 SSE 997,2 10 0 0,2
16.01.2018 01:00:00 1,1 -2,6 0,7 -0,1 1,0 4,8 39 21 53 29 SSE 998,8 20 0 0,0
16.01.2018 00:00:00 1,5 -4,0 1,1 -0,1 1,0 4,8 35 19 53 29 SSE 1000,4 25 0 0,0
15.01.2018 23:00:00 1,4 -4,1 1,0 -0,1 1,0 4,8 36 19 54 29 SSE 1001,7 40 0 0,0
15.01.2018 22:00:00 1,3 -3,9 0,8 -0,1 1,0 4,8 34 18 47 25 SSE 1003,6 40 0 0,0
15.01.2018 21:00:00 1,2 -3,7 0,6 -0,1 1,0 4,8 29 16 40 21 SSE 1005,9 30 0 0,0
15.01.2018 20:00:00 1,2 -3,7 0,9 -0,1 1,0 4,8 29 15 41 22 SSE 1007,1 30 0 0,0
15.01.2018 19:00:00 1,3 -3,6 0,9 -0,1 1,0 4,8 29 16 41 22 SSE 1008,2 35 0 0,0
15.01.2018 18:00:00 1,3 -3,6 0,6 -0,1 1,0 4,9 29 16 43 23 SSE 1009,5 35 0 0,0
15.01.2018 17:00:00 1,7 -3,6 0,8 -0,1 1,0 4,9 28 15 40 22 SSE 1010,8 35 0 0,0
15.01.2018 16:00:00 1,9 -3,5 0,5 -0,1 1,0 4,9 27 14 38 20 SSE 1012,4 35 16 0,0
15.01.2018 15:00:00 3,0 -3,4 2,9 -0,1 1,0 4,9 28 15 43 23 S 1013,8 35 42 0,0
15.01.2018 14:00:00 3,1 -3,2 4,1 -0,2 1,0 4,9 27 15 44 24 SSE 1015,1 35 60 0,0
15.01.2018 13:00:00 2,9 -2,8 4,5 -0,2 1,0 4,9 26 14 46 25 SSE 1016,3 30 60 0,0
15.01.2018 12:00:00 1,6 -3,4 2,6 -0,3 1,0 4,9 29 16 40 22 S 1018,0 25 60 0,0
15.01.2018 11:00:00 0,2 -3,9 0,0 -0,4 1,0 4,9 25 14 35 19 SSE 1019,4 18 60 0,0
15.01.2018 10:00:00 -1,3 -4,4 -0,7 -0,8 1,0 4,9 24 13 35 19 SSE 1020,1 15 60 0,0
15.01.2018 09:00:00 -2,4 -4,9 -3,6 -0,9 1,0 4,9 23 13 31 17 SE 1021,1 15 3 0,0
15.01.2018 08:00:00 -2,7 -5,1 -4,3 -0,6 1,0 4,9 18 10 27 15 ESE 1021,7 12 0 0,0
15.01.2018 07:00:00 -2,1 -4,7 -2,1 -0,4 1,1 4,9 19 10 27 15 ESE 1022,1 20 0 0,0
15.01.2018 06:00:00 -2,4 -5,0 -2,2 -0,4 1,1 4,9 18 10 28 15 ESE 1022,8 17 0 0,0
15.01.2018 05:00:00 -2,6 -5,1 -2,4 -0,4 1,1 4,9 21 12 29 15 ESE 1023,7 16 0 0,0
15.01.2018 04:00:00 -2,8 -5,3 -2,6 -0,5 1,1 4,9 21 12 29 15 ESE 1024,6 17 0 0,0
15.01.2018 03:00:00 -3,0 -5,4 -2,7 -0,5 1,1 4,9 21 11 31 17 ESE 1025,4 17 0 0,0
15.01.2018 02:00:00 -2,9 -5,5 -2,6 -0,5 1,2 4,9 20 11 29 16 ESE 1026,4 18 0 0,0
15.01.2018 01:00:00 -3,0 -5,5 -2,9 -0,5 1,2 5,0 16 9 25 14 ESE 1027,1 19 0 0,0
15.01.2018 00:00:00 -3,3 -5,9 -4,3 -0,5 1,2 5,0 18 10 26 14 ESE 1027,5 20 0 0,0
14.01.2018 23:00:00 -2,9 -5,6 -3,2 -0,5 1,2 5,0 19 11 31 17 ESE 1027,9 25 0 0,0
14.01.2018 22:00:00 -3,2 -5,8 -4,4 -0,5 1,3 5,0 19 11 29 16 ESE 1028,1 25 0 0,0
14.01.2018 21:00:00 -3,1 -5,8 -4,3 -0,4 1,3 5,0 19 10 29 16 ESE 1028,6 25 0 0,0
14.01.2018 20:00:00 -2,9 -5,7 -4,2 -0,2 1,3 5,0 19 10 28 15 ESE 1028,7 28 0 0,0
14.01.2018 19:00:00 -2,5 -5,4 -4,1 0,0 1,3 5,0 17 9 29 16 ESE 1028,9 23 0 0,0
14.01.2018 18:00:00 -2,0 -5,3 -3,6 0,1 1,3 5,0 21 11 29 16 ESE 1028,9 25 0 0,0
14.01.2018 17:00:00 -1,7 -5,3 -3,2 0,1 1,3 5,0 17 9 27 15 ESE 1029,0 30 0 0,0
14.01.2018 16:00:00 -1,1 -5,2 -2,1 0,1 1,4 5,0 17 9 31 17 ESE 1029,1 35 54 0,0
14.01.2018 15:00:00 -0,4 -4,8 0,6 0,1 1,4 5,0 22 12 31 17 E 1029,1 35 22 0,0
14.01.2018 14:00:00 -0,2 -5,1 0,6 0,1 1,4 5,0 18 10 31 17 ESE 1029,4 35 3 0,0
14.01.2018 13:00:00 -0,2 -5,0 0,8 0,1 1,4 5,0 19 11 33 18 ESE 1029,7 35 0 0,0
14.01.2018 12:00:00 -0,5 -5,1 0,1 0,0 1,4 5,0 21 11 35 19 ESE 1030,2 35 0 0,0
14.01.2018 11:00:00 -1,2 -4,9 -0,3 0,0 1,4 5,0 14 8 22 12 E 1030,6 30 11 0,0
14.01.2018 10:00:00 -1,9 -5,4 -1,3 0,0 1,5 5,0 15 8 26 14 E 1030,4 10 54 0,0
14.01.2018 09:00:00 -2,9 -5,5 -3,9 0,1 1,5 5,0 18 10 26 14 E 1030,3 19 0 0,0
14.01.2018 08:00:00 -3,1 -5,7 -4,5 0,1 1,5 5,0 19 10 26 14 E 1030,3 20 0 0,0
14.01.2018 07:00:00 -2,9 -5,7 -4,3 0,2 1,6 5,0 17 9 22 12 E 1030,3 25 0 0,0
14.01.2018 06:00:00 -2,7 -5,7 -4,2 0,2 1,6 5,0 14 7 21 11 E 1030,2 25 0 0,0
14.01.2018 05:00:00 -2,5 -5,7 -4,1 0,3 1,6 5,0 13 7 22 12 ENE 1030,4 25 0 0,0
14.01.2018 04:00:00 -2,2 -5,5 -3,9 0,3 1,6 5,0 17 9 26 14 E 1030,3 25 0 0,0
14.01.2018 03:00:00 -1,8 -5,3 -3,4 0,4 1,6 5,0 19 11 27 15 E 1030,3 25 0 0,0
14.01.2018 02:00:00 -1,3 -5,2 -2,9 0,4 1,7 5,0 18 10 28 15 E 1030,6 25 0 0,0
14.01.2018 01:00:00 -0,2 -5,0 -1,0 0,4 1,7 5,0 20 11 33 18 ESE 1030,7 28 0 0,0
14.01.2018 00:00:00 -0,1 -5,0 -0,4 0,4 1,7 5,0 20 11 32 17 E 1031,0 30 0 0,0
13.01.2018 23:00:00 -0,1 -5,0 -0,4 0,4 1,7 5,0 23 12 34 18 E 1031,1 30 0 0,0
13.01.2018 22:00:00 0,0 -4,9 -0,3 0,4 1,7 5,0 24 13 36 20 E 1031,6 35 0 0,0
13.01.2018 21:00:00 -0,1 -4,9 -0,3 0,4 1,8 5,0 22 12 34 18 ESE 1032,1 35 0 0,0
13.01.2018 20:00:00 0,0 -4,8 -0,3 0,5 1,8 5,0 25 14 42 23 ESE 1032,2 40 0 0,0
13.01.2018 19:00:00 0,0 -4,8 -0,2 0,5 1,9 5,0 26 14 37 20 ESE 1032,2 40 0 0,0
13.01.2018 18:00:00 0,2 -4,3 -0,1 0,5 1,9 5,0 19 10 35 19 ESE 1032,3 40 0 0,0
13.01.2018 17:00:00 0,3 -4,8 0,0 0,5 2,0 5,0 23 13 41 22 ESE 1031,8 40 0 0,0
13.01.2018 16:00:00 0,2 -5,1 0,0 0,7 2,0 5,0 22 12 37 20 ESE 1031,6 40 0 0,0
13.01.2018 15:00:00 -0,1 -5,0 0,0 0,9 2,0 5,0 18 10 36 20 ESE 1031,9 30 0 0,0
13.01.2018 14:00:00 -0,3 -5,0 -0,2 1,0 2,1 5,0 23 12 45 24 E 1032,3 30 0 0,0
13.01.2018 13:00:00 -0,3 -4,2 0,0 1,2 2,1 5,0 22 12 34 18 E 1032,5 30 0 0,0
13.01.2018 12:00:00 -0,4 -4,0 -0,1 1,2 2,0 5,0 23 13 42 23 E 1032,9 30 5 0,0
13.01.2018 11:00:00 -0,3 -3,7 0,3 1,1 2,0 5,0 22 12 44 24 E 1033,2 30 21 0,0
13.01.2018 10:00:00 -0,2 -3,2 -0,1 0,8 2,1 5,0 28 15 44 24 ESE 1032,9 19 0 0,0
13.01.2018 09:00:00 0,0 -2,8 -0,1 0,8 2,1 5,0 27 15 42 23 ESE 1032,7 16 0 0,0
13.01.2018 08:00:00 0,1 -2,2 0,0 0,9 2,2 5,0 19 10 29 15 E 1032,4 10 0 0,0
13.01.2018 07:00:00 0,2 -1,7 0,1 1,0 2,2 5,0 22 12 32 17 E 1032,4 8 0 0,0
13.01.2018 06:00:00 0,2 -1,4 0,1 1,1 2,3 5,0 18 10 31 17 E 1032,1 6 0 0,0

tt = Température de l'air
td = dewpoint
tt 5cm = Température de l'air 5cm
tt -5cm = Température de l'air -5cm
tt -20cm = Température de l'air -20cm
tt -100cm = Température de l'air -100cm
ff = Vitesse du vent
fx = gusts
dd = Direction du vent
ppp = reduced air pressure
vv = visibility
sd = Ensoleillement
rr = Quantités de précipitations

stations d'obs. à proximité